SQ6MTB Weather Reports


Display with metric or nautical units.
time (UTC)temp
F
wind
direction
speed
MPH
gust
MPH
rain 1hr
in
rain 24hr
in
rain mn
in
humidity
%
barometer
mb
20260506211506 51 5 3.0 8.0 0.00 0.48 0.48 82 1007.5
20260506211024 51 44 2.0 8.0 0.00 0.48 0.48 82 1007.5
20260506210543 51 30 2.0 9.0 0.00 0.48 0.48 82 1007.6
20260506210128 52 60 3.0 9.0 0.00 0.48 0.48 81 1007.5
20260506205517 52 360 3.0 8.0 0.00 0.48 0.48 81 1007.6
20260506205036 52 71 3.0 8.0 0.00 0.48 0.48 81 1007.5
20260506204556 52 336 2.0 9.0 0.00 0.48 0.48 81 1007.3
20260506204013 52 350 2.0 9.0 0.00 0.48 0.48 81 1007.4
20260506203529 52 43 2.0 9.0 0.00 0.48 0.48 81 1007.3
20260506203050 52 31 1.0 9.0 0.00 0.48 0.48 81 1007.2
20260506202506 53 349 3.0 6.0 0.00 0.48 0.48 82 1007.3
20260506202024 53 360 2.0 9.0 0.00 0.48 0.48 81 1007.1
20260506201543 53 49 2.0 7.0 0.00 0.48 0.48 81 1007.1
20260506201010 53 22 1.0 6.0 0.00 0.48 0.48 81 1007.1
20260506200525 53 10 1.0 6.0 0.00 0.48 0.48 81 1007.2
20260506200117 53 71 1.0 5.0 0.00 0.48 0.48 81 1007.2
20260506195501 53 5 1.0 5.0 0.00 0.48 0.48 81 1007.2
20260506195030 53 346 0.0 4.0 0.00 0.48 0.48 81 1007.2
20260506194550 53 344 1.0 4.0 0.00 0.48 0.48 81 1007.1
20260506194016 53 5 1.0 6.0 0.00 0.48 0.48 80 1007.1
20260506193538 53 360 0.0 8.0 0.00 0.48 0.48 80 1007.0
20260506193054 53 28 2.0 9.0 0.00 0.48 0.48 80 1007.0
20260506192513 54 342 1.0 9.0 0.00 0.48 0.48 79 1006.9
20260506192039 54 349 4.0 9.0 0.00 0.48 0.48 79 1007.0
20260506191600 54 323 3.0 10.0 0.00 0.48 0.48 79 1006.9
20260506191024 54 13 2.0 10.0 0.00 0.48 0.48 79 1006.9
20260506190542 54 327 2.0 10.0 0.00 0.48 0.48 79 1006.9
20260506190008 54 322 2.0 6.0 0.00 0.48 0.48 79 1006.9
20260506185531 54 5 1.0 6.0 0.00 0.48 0.48 78 1006.8
20260506185051 55 355 0.0 10.0 0.00 0.48 0.48 78 1006.9
20260506184518 55 320 2.0 12.0 0.00 0.48 0.48 78 1006.7
20260506184036 55 38 2.0 12.0 0.00 0.48 0.48 77 1006.6
20260506183554 55 327 2.0 10.0 0.00 0.48 0.48 77 1006.5
20260506183009 56 342 4.0 10.0 0.00 0.48 0.48 77 1006.4
20260506182532 56 9 2.0 11.0 0.00 0.48 0.48 76 1006.5
20260506182050 56 339 4.0 11.0 0.00 0.48 0.48 76 1006.5
20260506181519 57 34 3.0 10.0 0.00 0.48 0.48 76 1006.4
20260506181035 57 18 2.0 9.0 0.00 0.48 0.48 75 1006.3
20260506180554 57 360 2.0 8.0 0.00 0.48 0.48 75 1006.3
20260506180016 57 11 4.0 9.0 0.00 0.48 0.48 75 1006.2
20260506175530 58 329 2.0 9.0 0.00 0.48 0.48 75 1006.2
20260506175048 58 340 2.0 8.0 0.00 0.48 0.48 75 1006.1
20260506174503 58 336 3.0 8.0 0.00 0.48 0.48 75 1006.2
20260506174022 58 312 2.0 13.0 0.00 0.48 0.48 75 1006.3
20260506173550 58 11 4.0 15.0 0.00 0.48 0.48 74 1006.2
20260506173007 58 344 7.0 15.0 0.00 0.48 0.48 74 1006.1
20260506172534 59 310 3.0 13.0 0.00 0.48 0.48 74 1006.1
20260506172054 59 360 6.0 13.0 0.00 0.48 0.48 74 1006.1
20260506171535 59 344 4.0 13.0 0.00 0.48 0.48 74 1006.1
20260506171034 59 337 7.0 11.0 0.00 0.48 0.48 74 1006.0
20260506170552 59 346 4.0 10.0 0.00 0.48 0.48 74 1006.0
20260506170019 60 345 3.0 9.0 0.00 0.48 0.48 74 1006.0
20260506165536 60 11 1.0 12.0 0.00 0.48 0.48 74 1006.0
20260506165056 60 329 6.0 12.0 0.00 0.48 0.48 74 1005.9
20260506164513 60 360 3.0 11.0 0.00 0.48 0.48 74 1006.0
20260506164041 60 336 5.0 12.0 0.00 0.48 0.48 74 1006.0
20260506163600 60 346 6.0 12.0 0.00 0.48 0.48 73 1005.9
20260506163027 60 340 5.0 14.0 0.00 0.48 0.48 73 1006.0
20260506162537 61 351 7.0 14.0 0.00 0.48 0.48 73 1005.9
20260506162055 61 331 5.0 11.0 0.00 0.48 0.48 72 1005.8
20260506161524 62 350 5.0 11.0 0.00 0.48 0.48 72 1005.7
20260506161034 62 328 3.0 17.0 0.00 0.48 0.48 72 1005.8
20260506160545 62 15 6.0 17.0 0.00 0.48 0.48 72 1005.8
20260506160109 63 276 5.0 12.0 0.00 0.48 0.48 71 1005.9
20260506155526 63 355 3.0 11.0 0.00 0.48 0.48 70 1005.9
20260506155043 64 360 5.0 13.0 0.00 0.48 0.48 69 1005.8
20260506154510 64 338 7.0 13.0 0.00 0.48 0.48 68 1005.9
20260506154029 65 302 3.0 10.0 0.00 0.48 0.48 68 1005.9
20260506153548 65 338 4.0 12.0 0.00 0.48 0.48 67 1005.8
20260506153005 65 360 5.0 10.0 0.00 0.48 0.48 67 1005.8
20260506152530 66 355 2.0 10.0 0.00 0.48 0.48 67 1005.8
20260506152049 66 333 4.0 10.0 0.00 0.48 0.48 66 1005.8
20260506151506 66 355 5.0 10.0 0.00 0.48 0.48 65 1005.8
20260506151025 66 287 2.0 11.0 0.00 0.48 0.48 65 1005.8
20260506150545 67 5 5.0 11.0 0.00 0.48 0.48 66 1005.7
20260506150005 67 338 4.0 10.0 0.00 0.48 0.48 66 1005.7
20260506145529 66 345 2.0 9.0 0.00 0.48 0.48 66 1005.8
20260506145049 66 5 2.0 9.0 0.00 0.48 0.48 65 1005.8
20260506144507 66 330 3.0 12.0 0.00 0.48 0.48 64 1005.8
20260506144028 67 263 5.0 12.0 0.00 0.48 0.48 63 1005.8
20260506143546 67 286 4.0 12.0 0.00 0.48 0.48 63 1005.8
20260506143003 67 340 3.0 12.0 0.00 0.48 0.48 63 1005.7
20260506142521 67 308 4.0 12.0 0.00 0.48 0.48 63 1005.7
20260506142041 67 284 4.0 12.0 0.00 0.48 0.48 63 1005.6
20260506141600 68 344 4.0 9.0 0.00 0.48 0.48 63 1005.7
20260506141022 68 333 1.0 13.0 0.00 0.48 0.48 62 1005.6
20260506140541 69 240 7.0 12.0 0.00 0.48 0.48 61 1005.7
20260506140007 68 9 5.0 14.0 0.00 0.48 0.48 60 1005.7
20260506135530 68 234 7.0 14.0 0.00 0.48 0.48 61 1005.6
20260506135044 67 231 6.0 14.0 0.00 0.48 0.48 62 1005.7
20260506134503 67 256 6.0 15.0 0.00 0.48 0.48 61 1005.7
20260506134030 67 271 10.0 15.0 0.00 0.48 0.48 62 1005.8
20260506133548 68 271 7.0 12.0 0.00 0.48 0.48 62 1005.8
20260506133002 68 258 7.0 14.0 0.00 0.48 0.48 60 1005.7
20260506132520 69 244 7.0 12.0 0.00 0.48 0.48 61 1005.7
20260506132048 68 207 3.0 12.0 0.00 0.48 0.48 62 1005.7
20260506131505 68 316 7.0 13.0 0.00 0.48 0.48 63 1005.7
20260506131035 68 240 6.0 13.0 0.00 0.48 0.48 62 1005.8
20260506130552 68 248 7.0 15.0 0.00 0.48 0.48 60 1005.7
20260506130019 68 299 7.0 15.0 0.00 0.48 0.48 61 1005.7
20260506125536 68 263 7.0 17.0 0.00 0.48 0.48 62 1005.7
20260506125055 68 297 11.0 17.0 0.00 0.48 0.48 61 1005.6
20260506124516 67 298 8.0 15.0 0.00 0.48 0.48 58 1005.7
20260506124041 67 206 7.0 17.0 0.00 0.48 0.48 59 1005.6
20260506123601 67 257 10.0 17.0 0.00 0.48 0.48 58 1005.6
20260506123013 67 267 9.0 15.0 0.00 0.48 0.48 59 1005.7
20260506122539 67 229 8.0 14.0 0.00 0.48 0.48 60 1005.6
20260506122057 67 187 6.0 17.0 0.00 0.48 0.48 59 1005.6
20260506121522 67 244 8.0 17.0 0.00 0.48 0.48 60 1005.6
20260506121042 66 269 8.0 16.0 0.00 0.48 0.48 61 1005.6
20260506120506 66 259 11.0 17.0 0.00 0.48 0.48 61 1005.5
20260506120025 66 271 11.0 17.0 0.01 0.48 0.48 62 1005.4
20260506115544 66 261 11.0 17.0 0.01 0.48 0.48 62 1005.3
20260506115009 66 277 5.0 19.0 0.01 0.48 0.48 64 1005.3
20260506114546 65 270 7.0 18.0 0.01 0.48 0.48 64 1005.4
20260506114058 65 263 11.0 18.0 0.01 0.48 0.48 64 1005.6
20260506113515 64 236 10.0 18.0 0.01 0.48 0.48 69 1005.5
20260506113037 63 267 10.0 16.0 0.01 0.48 0.48 69 1005.4
20260506112555 62 210 9.0 14.0 0.01 0.48 0.48 71 1005.6
20260506112015 62 250 5.0 11.0 0.01 0.48 0.48 74 1005.5
20260506111542 62 227 6.0 9.0 0.01 0.48 0.48 74 1005.4
20260506111059 61 231 5.0 11.0 0.01 0.48 0.48 75 1005.5
20260506110523 61 234 6.0 11.0 0.01 0.48 0.48 75 1005.4
20260506110043 61 235 6.0 16.0 0.00 0.47 0.47 73 1005.5
20260506105509 61 217 8.0 16.0 0.00 0.47 0.47 71 1005.4
20260506105028 61 237 6.0 12.0 0.00 0.47 0.47 71 1005.5
20260506104547 61 271 6.0 14.0 0.00 0.47 0.47 72 1005.4
20260506104004 61 263 8.0 14.0 0.00 0.47 0.47 71 1005.5
20260506103535 61 265 9.0 15.0 0.00 0.47 0.47 71 1005.4
20260506103051 61 290 6.0 15.0 0.00 0.47 0.47 72 1005.2
20260506102509 61 238 5.0 11.0 0.00 0.47 0.47 72 1005.3
20260506102028 62 208 6.0 15.0 0.00 0.47 0.47 71 1005.2
20260506101548 62 265 9.0 15.0 0.00 0.47 0.47 72 1005.3
20260506101004 62 257 6.0 13.0 0.00 0.47 0.47 72 1005.4
20260506100530 62 225 5.0 13.0 0.00 0.47 0.47 73 1005.2
20260506100050 62 215 6.0 12.0 0.00 0.47 0.47 72 1005.2
20260506095516 62 223 5.0 10.0 0.00 0.47 0.47 72 1005.1
20260506095040 62 254 5.0 17.0 0.00 0.47 0.47 72 1005.1
20260506094556 62 263 8.0 17.0 0.00 0.47 0.47 70 1005.0
20260506094011 62 277 6.0 12.0 0.00 0.47 0.47 70 1005.0
20260506093532 63 292 8.0 12.0 0.00 0.47 0.47 70 1004.9
20260506093055 63 246 6.0 12.0 0.00 0.47 0.47 70 1005.0
20260506092517 63 239 4.0 15.0 0.00 0.47 0.47 72 1004.9
20260506092031 62 229 5.0 15.0 0.00 0.47 0.47 73 1004.8
20260506091551 62 250 6.0 14.0 0.00 0.47 0.47 72 1004.7
20260506091006 61 241 6.0 12.0 0.00 0.47 0.47 74 1004.7
20260506090534 61 269 8.0 16.0 0.00 0.47 0.47 73 1004.7
20260506090053 61 240 4.0 16.0 0.00 0.47 0.47 73 1004.7
20260506085507 62 256 8.0 15.0 0.00 0.47 0.47 72 1004.6
20260506085027 61 250 7.0 15.0 0.00 0.47 0.47 74 1004.6
20260506084543 61 229 8.0 14.0 0.00 0.47 0.47 74 1004.6
20260506084009 60 272 6.0 14.0 0.00 0.47 0.47 76 1004.4
20260506083530 60 225 7.0 12.0 0.00 0.47 0.47 76 1004.4
20260506083107 60 224 2.0 8.0 0.00 0.47 0.47 78 1004.4
20260506082504 60 246 4.0 9.0 0.00 0.47 0.47 77 1004.4
20260506082035 60 199 3.0 12.0 0.00 0.47 0.47 77 1004.4
20260506081552 60 256 5.0 12.0 0.00 0.47 0.47 79 1004.3
20260506081016 60 228 6.0 12.0 0.00 0.47 0.47 80 1004.4
20260506080535 60 207 4.0 15.0 0.00 0.47 0.47 81 1004.3
20260506073052 57 275 3.0 8.0 0.00 0.47 0.47 87 1004.6
20260506072509 57 227 3.0 11.0 0.00 0.47 0.47 88 1004.5
20260506072039 57 207 5.0 11.0 0.00 0.47 0.47 88 1004.6
20260506071558 56 185 2.0 9.0 0.00 0.47 0.47 89 1004.5
20260506071014 56 165 3.0 7.0 0.00 0.47 0.47 90 1004.4
20260506070536 56 168 1.0 6.0 0.00 0.47 0.47 90 1004.5
20260506070105 56 204 2.0 6.0 0.00 0.47 0.47 90 1004.6
20260506062507 53 144 2.0 5.0 0.00 0.47 0.47 91 1004.4
20260506062036 53 122 1.0 5.0 0.00 0.47 0.47 91 1004.5
20260506061556 53 149 2.0 5.0 0.00 0.47 0.47 91 1004.6
20260506061014 53 179 3.0 7.0 0.00 0.47 0.47 91 1004.6
20260506060535 53 118 3.0 7.0 0.00 0.47 0.47 91 1004.6
20260506051031 52 56 0.0 4.0 0.00 0.47 0.47 91 1004.6
20260506050542 52 147 0.0 4.0 0.00 0.47 0.47 91 1004.6
20260506050105 52 142 2.0 4.0 0.00 0.47 0.47 91 1004.7
20260506045030 52 110 2.0 6.0 0.00 0.47 0.47 91 1004.7
20260506044549 52 62 1.0 7.0 0.00 0.47 0.47 91 1004.7
20260506044010 52 91 3.0 7.0 0.00 0.47 0.47 91 1004.7
20260506043537 52 57 1.0 5.0 0.00 0.47 0.47 91 1004.7
20260506043051 51 90 0.0 4.0 0.00 0.47 0.47 91 1004.7
20260506042507 51 56 1.0 4.0 0.00 0.47 0.47 91 1004.7
20260506042032 51 88 0.0 4.0 0.00 0.47 0.47 91 1004.7
20260506041554 52 124 1.0 3.0 0.00 0.47 0.47 91 1004.8
20260506041007 52 115 0.0 3.0 0.00 0.47 0.47 91 1004.8
20260506040525 52 62 0.0 2.0 0.00 0.47 0.47 91 1004.9
20260506040043 52 132 0.0 2.0 0.00 0.47 0.47 91 1004.9
20260506035509 52 169 0.0 2.0 0.00 0.47 0.47 91 1005.0
20260506035039 52 158 0.0 3.0 0.00 0.47 0.47 91 1004.9
20260506034507 52 182 0.0 2.0 0.00 0.47 0.47 91 1004.9
20260506034026 51 117 0.0 2.0 0.00 0.47 0.47 91 1004.8
20260506033543 51 93 0.0 1.0 0.00 0.47 0.47 91 1004.8
20260506033101 52 169 0.0 3.0 0.00 0.47 0.47 91 1004.7
20260506032528 52 65 0.0 4.0 0.00 0.47 0.47 91 1004.7
20260506032047 52 84 0.0 3.0 0.00 0.47 0.47 91 1004.7
20260506031503 52 226 0.0 6.0 0.00 0.47 0.47 91 1004.6
20260506031025 52 77 1.0 9.0 0.00 0.47 0.47 90 1004.6
20260506030541 52 61 4.0 9.0 0.00 0.47 0.47 90 1004.5
20260506030100 52 53 2.0 9.0 0.00 0.47 0.47 90 1004.5
20260506025522 52 33 3.0 9.0 0.00 0.47 0.47 90 1004.5
20260506025037 52 48 5.0 9.0 0.02 0.47 0.47 90 1004.5
20260506024604 52 98 3.0 8.0 0.03 0.47 0.47 91 1004.7
20260506024010 52 66 3.0 8.0 0.06 0.47 0.47 91 1004.7
20260506023540 52 60 2.0 7.0 0.07 0.47 0.47 90 1004.7
20260506023103 52 46 2.0 9.0 0.08 0.47 0.47 90 1004.9
20260506022514 52 75 4.0 10.0 0.10 0.47 0.47 90 1004.8
20260506022031 53 38 4.0 10.0 0.12 0.47 0.47 90 1004.9
20260506021551 53 49 1.0 9.0 0.13 0.47 0.47 90 1004.8
20260506021006 53 81 4.0 9.0 0.13 0.47 0.47 90 1004.7
20260506020523 53 49 2.0 9.0 0.13 0.47 0.47 90 1004.7
20260506020048 53 76 3.0 13.0 0.13 0.47 0.47 90 1004.7
20260506015602 53 70 3.0 13.0 0.13 0.47 0.47 90 1004.6
20260506015029 53 36 5.0 13.0 0.13 0.45 0.45 90 1004.5
20260506014557 53 40 6.0 13.0 0.13 0.44 0.44 90 1004.4
20260506014004 54 80 6.0 12.0 0.13 0.41 0.41 90 1004.5
20260506013522 54 15 5.0 10.0 0.15 0.40 0.40 90 1005.1
20260506013042 54 355 4.0 10.0 0.17 0.39 0.39 90 1005.1
20260506012607 54 76 5.0 10.0 0.18 0.37 0.37 90 1005.3
20260506012028 54 5 1.0 4.0 0.20 0.35 0.35 90 1006.0
20260506011611 54 23 0.0 2.0 0.22 0.35 0.35 90 1006.0
20260506011002 54 346 0.0 3.0 0.24 0.35 0.35 90 1006.0
20260506010521 54 339 1.0 3.0 0.26 0.35 0.35 90 1006.0
20260506010041 54 9 1.0 3.0 0.26 0.35 0.35 90 1006.1
20260506005601 54 303 0.0 2.0 0.25 0.33 0.33 90 1006.2
20260506005025 54 297 0.0 3.0 0.24 0.31 0.31 90 1006.3
20260506004558 54 344 0.0 5.0 0.23 0.31 0.31 90 1006.3
20260506004010 54 236 0.0 5.0 0.20 0.27 0.27 90 1006.4
20260506003529 54 269 2.0 6.0 0.17 0.24 0.24 90 1006.5
20260506003039 54 249 1.0 7.0 0.15 0.22 0.22 90 1006.6
20260506002554 54 257 3.0 10.0 0.13 0.19 0.19 89 1006.6
20260506002019 54 292 4.0 10.0 0.08 0.14 0.14 89 1006.6
20260506001543 54 198 5.0 9.0 0.06 0.12 0.12 89 1006.8
20260506001058 54 186 5.0 7.0 0.06 0.11 0.11 89 1006.7
20260506000516 54 244 2.0 5.0 0.03 0.09 0.09 89 1006.6
20260506000109 54 201 0.0 5.0 0.02 0.08 0.08 88 1006.3
20260505235602 54 19 1.0 5.0 0.02 0.08 0.08 88 1006.3
20260505235027 54 43 2.0 6.0 0.03 0.08 0.08 88 1006.1
20260505234551 54 36 2.0 6.0 0.03 0.08 0.08 88 1006.1
20260505234011 54 22 0.0 5.0 0.02 0.07 0.07 89 1006.0
20260505233533 54 40 0.0 5.0 0.02 0.07 0.07 88 1006.0
20260505233052 54 360 0.0 5.0 0.02 0.07 0.07 88 1006.0
20260505232509 54 37 1.0 5.0 0.02 0.06 0.06 88 1006.1
20260505232031 55 30 1.0 5.0 0.02 0.06 0.06 88 1006.2
20260505231554 55 74 0.0 4.0 0.02 0.06 0.06 88 1006.1
20260505231005 55 34 0.0 4.0 0.02 0.06 0.06 88 1006.2
20260505230524 55 347 0.0 0.0 0.04 0.06 0.06 88 1006.4
20260505230100 54 347 0.0 4.0 0.06 0.06 0.06 87 1006.4
20260505225513 55 346 0.0 9.0 0.06 0.06 0.06 87 1006.3
20260505225028 55 30 1.0 9.0 0.05 0.05 0.05 87 1006.0
20260505224547 55 54 3.0 11.0 0.05 0.05 0.05 87 1005.9
20260505224004 55 74 6.0 12.0 0.05 0.05 0.05 87 1005.9
20260505223532 55 59 3.0 12.0 0.05 0.05 0.05 87 1005.7
20260505223050 55 54 5.0 12.0 0.05 0.05 0.05 86 1005.8
20260505222520 55 65 6.0 12.0 0.05 0.05 0.05 86 1005.9
20260505222035 56 61 3.0 9.0 0.04 0.04 0.04 86 1006.0
20260505221600 56 355 4.0 11.0 0.04 0.04 0.04 85 1006.0
20260505221011 56 80 4.0 12.0 0.04 0.04 0.04 84 1006.2
20260505220530 56 26 7.0 12.0 0.01 0.01 0.01 83 1006.2
20260505220049 57 65 4.0 8.0 0.00 0.00 0.00 82 1006.5
20260505215503 57 63 1.0 6.0 0.00 0.00 0.00 82 1006.7
20260505215022 57 74 4.0 6.0 0.00 0.00 0.00 81 1006.8
20260505214542 57 40 2.0 6.0 0.00 0.00 0.00 81 1006.8
20260505214104 57 61 3.0 8.0 0.00 0.00 0.00 81 1006.8
20260505213526 57 65 1.0 8.0 0.00 0.00 0.00 81 1007.0
20260505213046 57 52 2.0 6.0 0.00 0.00 0.00 81 1007.0
20260505212512 57 53 2.0 9.0 0.00 0.00 0.00 80 1007.1
20260505212031 57 5 3.0 9.0 0.00 0.00 0.00 80 1007.0